Weather History for Stevens Point, WI

Change the Weather History Date:

Monday, March 24, 2014

  Actual Average Record
Temperature  
Mean Temperature 14 °F -  
Max Temperature 27 °F 41 °F 64 °F (1987)
Min Temperature 0 °F 23 °F -10 °F (1974)
Degree Days  
Heating Degree Days 52    
Moisture  
Dew Point 8 °F    
Average Humidity 74    
Maximum Humidity 93    
Minimum Humidity 49    
Precipitation  
Precipitation 0.01 in - - ()
Sea Level Pressure  
Sea Level Pressure 30.16 in    
Wind  
Wind Speed 3 mph (West)    
Max Wind Speed 14 mph    
Max Gust Speed 25 mph    
Visibility 9 miles    
Events Snow    
Averages and records for this station are not official NWS values.
T = Trace of Precipitation, MM = Missing Value Source: NWS Daily Summary

Daily Weather History Graph

Daily Weather History Graph

Search for Another Location

Airport:

Trip Planner

Search our weather history database for the weather conditions in past years. The results will help you decide how hot, cold, wet, or windy it might be!

Date:

Astronomy

Mar. 24, 2014 Rise Set
Actual Time 6:53 AM CDT 7:15 PM CDT
Civil Twilight 6:24 AM CDT 7:44 PM CDT
Nautical Twilight 5:50 AM CDT 8:19 PM CDT
Astronomical Twilight 5:15 AM CDT 8:54 PM CDT
Moon 2:37 AM CDT (3/24) 12:28 PM CDT (3/24)
Length of Visible Light 13h 20m
Length of Day
12h 21m
Last Quarter, 43% of the Moon is Illuminated
Mar 24
Last Quarter
Mar 30
New
Apr 7
First Quarter
Apr 15
Full
Apr 22
Last Quarter

Hourly Weather History & Observations

Time (CDT) Temp. Windchill Dew Point Humidity Pressure Visibility Wind Dir Wind Speed Gust Speed Precip Events Conditions
12:15 AM 10.2 °F - 3.0 °F 73% 30.33 in 10.0 mi Calm Calm - N/A   Clear
12:35 AM 9.3 °F 2.8 °F 2.8 °F 75% 30.33 in 10.0 mi West 3.5 mph - N/A   Clear
12:55 AM 8.6 °F - 1.9 °F 74% 30.33 in 10.0 mi Calm Calm - N/A   Clear
1:15 AM 6.4 °F - 1.6 °F 80% 30.32 in 10.0 mi Calm Calm - N/A   Clear
1:35 AM 7.2 °F - 2.1 °F 80% 30.32 in 10.0 mi Calm Calm - N/A   Clear
1:55 AM 5.0 °F - 0.5 °F 82% 30.32 in 10.0 mi Calm Calm - N/A   Clear
2:15 AM 5.5 °F - 1.2 °F 82% 30.32 in 10.0 mi Calm Calm - N/A   Clear
2:35 AM 5.0 °F - 1.0 °F 84% 30.31 in 10.0 mi Calm Calm - N/A   Clear
2:55 AM 3.6 °F - -0.4 °F 84% 30.31 in 10.0 mi Calm Calm - N/A   Scattered Clouds
3:15 AM 3.6 °F - -0.4 °F 84% 30.31 in 10.0 mi Calm Calm - N/A   Clear
3:35 AM 3.6 °F - -0.2 °F 84% 30.30 in 10.0 mi Calm Calm - N/A   Clear
3:55 AM 2.3 °F - -1.3 °F 85% 30.30 in 10.0 mi Calm Calm - N/A   Clear
4:15 AM 3.2 °F - -0.4 °F 85% 30.29 in 10.0 mi Calm Calm - N/A   Clear
4:35 AM 2.1 °F - -1.5 °F 85% 30.29 in 10.0 mi Calm Calm - N/A   Clear
4:55 AM 1.9 °F - -1.7 °F 85% 30.28 in 10.0 mi Calm Calm - N/A   Clear
5:15 AM 1.4 °F - -2.4 °F 84% 30.28 in 10.0 mi Calm Calm - N/A   Clear
5:35 AM 1.0 °F - -2.4 °F 86% 30.27 in 10.0 mi Calm Calm - N/A   Clear
5:55 AM 1.2 °F - -2.6 °F 84% 30.27 in 10.0 mi Calm Calm - N/A   Clear
6:15 AM 0.1 °F - -3.6 °F 84% 30.27 in 10.0 mi Calm Calm - N/A   Clear
6:35 AM 0.1 °F - -3.5 °F 85% 30.27 in 10.0 mi Calm Calm - N/A   Clear
6:55 AM 0.1 °F - -3.8 °F 83% 30.27 in 10.0 mi Calm Calm - N/A   Clear
7:15 AM 0.1 °F - -4.0 °F 83% 30.27 in 10.0 mi Calm Calm - N/A   Clear
7:35 AM 1.0 °F - -3.1 °F 83% 30.26 in 10.0 mi Calm Calm - N/A   Clear
7:55 AM 2.5 °F - -1.7 °F 83% 30.26 in 10.0 mi Calm Calm - N/A   Clear
8:15 AM 8.2 °F 1.6 °F 4.1 °F 83% 30.25 in 10.0 mi WSW 3.5 mph - N/A   Clear
8:35 AM 12.6 °F 4.8 °F 5.5 °F 74% 30.25 in 10.0 mi West 4.6 mph - N/A   Clear
8:55 AM 13.8 °F 3.7 °F 5.9 °F 71% 30.25 in 10.0 mi West 6.9 mph - N/A   Clear
9:15 AM 15.1 °F 6.4 °F 6.3 °F 68% 30.25 in 10.0 mi West 5.8 mph - N/A   Clear
9:35 AM 17.1 °F 6.6 °F 6.6 °F 64% 30.25 in 10.0 mi West 8.1 mph - N/A   Clear
9:55 AM 18.5 °F 7.5 °F 5.9 °F 58% 30.24 in 10.0 mi West 9.2 mph - N/A   Clear
10:15 AM 19.0 °F 6.8 °F 4.8 °F 54% 30.24 in 10.0 mi West 11.5 mph 16.1 mph N/A   Scattered Clouds
10:35 AM 20.1 °F 8.1 °F 4.3 °F 50% 30.23 in 10.0 mi West 11.5 mph 17.3 mph N/A   Scattered Clouds
10:55 AM 21.0 °F 9.3 °F 4.5 °F 49% 30.22 in 10.0 mi WNW 11.5 mph 18.4 mph N/A   Clear
11:15 AM 21.6 °F 10.6 °F 5.4 °F 50% 30.22 in 10.0 mi West 10.4 mph 19.6 mph N/A   Clear
11:35 AM 21.7 °F 11.5 °F 5.7 °F 50% 30.22 in 10.0 mi WNW 9.2 mph 17.3 mph N/A   Clear
11:55 AM 22.3 °F 10.2 °F 5.7 °F 49% 30.20 in 10.0 mi West 12.7 mph 19.6 mph N/A   Clear
12:15 PM 23.0 °F 12.4 °F 6.8 °F 50% 30.20 in 10.0 mi West 10.4 mph 17.3 mph N/A   Scattered Clouds
12:35 PM 23.2 °F 12.0 °F 7.2 °F 50% 30.19 in 10.0 mi West 11.5 mph 21.9 mph N/A   Mostly Cloudy
12:55 PM 23.7 °F 13.3 °F 8.1 °F 51% 30.18 in 10.0 mi WNW 10.4 mph 19.6 mph N/A   Mostly Cloudy
1:15 PM 24.6 °F 12.7 °F 9.0 °F 51% 30.17 in 10.0 mi WSW 13.8 mph 25.3 mph N/A   Overcast
1:35 PM 24.6 °F 12.7 °F 9.5 °F 53% 30.16 in 10.0 mi West 13.8 mph 20.7 mph N/A   Mostly Cloudy
1:55 PM 25.2 °F 14.4 °F 10.0 °F 53% 30.14 in 10.0 mi West 11.5 mph 16.1 mph N/A   Scattered Clouds
2:15 PM 24.8 °F 15.3 °F 9.9 °F 53% 30.13 in 10.0 mi West 9.2 mph - N/A   Scattered Clouds
2:35 PM 25.7 °F 18.0 °F 10.9 °F 54% 30.12 in 10.0 mi WNW 6.9 mph 17.3 mph N/A   Overcast
2:55 PM 26.4 °F 17.3 °F 12.0 °F 55% 30.10 in 10.0 mi NW 9.2 mph 16.1 mph N/A Snow Light Snow
3:15 PM 27.0 °F 17.3 °F 12.0 °F 53% 30.09 in 10.0 mi West 10.4 mph 17.3 mph N/A   Overcast
3:35 PM 26.8 °F 17.7 °F 13.8 °F 58% 30.07 in 10.0 mi WNW 9.2 mph 16.1 mph N/A   Overcast
3:55 PM 27.3 °F 19.1 °F 14.5 °F 59% 30.06 in 10.0 mi West 8.1 mph - N/A   Overcast
4:15 PM 27.3 °F 19.9 °F 16.0 °F 62% 30.05 in 10.0 mi West 6.9 mph - N/A   Overcast
4:35 PM 26.2 °F 16.4 °F 16.9 °F 68% 30.04 in 7.0 mi WSW 10.4 mph - N/A Snow Light Snow
4:55 PM 25.2 °F 18.3 °F 19.9 °F 81% 30.03 in 1.8 mi WSW 5.8 mph - N/A Snow Light Snow
5:15 PM 24.8 °F 19.1 °F 21.9 °F 89% 30.03 in 0.5 mi West 4.6 mph - N/A   Overcast
5:35 PM 24.6 °F 20.3 °F 21.9 °F 89% 30.02 in 0.5 mi West 3.5 mph - N/A   Overcast
5:55 PM 23.9 °F - 21.7 °F 91% 30.01 in 0.8 mi Calm Calm - N/A   Overcast
6:15 PM 23.4 °F 15.2 °F 21.2 °F 91% 30.02 in 0.5 mi NNW 6.9 mph 16.1 mph N/A   Overcast
6:35 PM 22.8 °F 15.5 °F 21.0 °F 93% 30.02 in 0.2 mi NW 5.8 mph - 0.01 in   Overcast
6:55 PM 22.8 °F 16.7 °F 20.8 °F 92% 30.01 in 1.2 mi WNW 4.6 mph - 0.01 in   Overcast
7:15 PM 22.8 °F 16.7 °F 19.6 °F 87% 30.01 in 10.0 mi West 4.6 mph - N/A   Overcast
7:35 PM 22.6 °F 16.5 °F 19.0 °F 86% 30.01 in 10.0 mi WNW 4.6 mph - N/A   Overcast
7:55 PM 21.9 °F 15.7 °F 18.3 °F 86% 30.01 in 10.0 mi West 4.6 mph - N/A   Scattered Clouds
8:15 PM 21.0 °F 14.6 °F 16.7 °F 83% 30.01 in 10.0 mi West 4.6 mph - N/A   Clear
8:35 PM 20.3 °F 13.8 °F 15.8 °F 83% 30.01 in 10.0 mi West 4.6 mph - N/A   Clear
8:55 PM 19.4 °F 12.8 °F 14.9 °F 83% 30.01 in 10.0 mi West 4.6 mph - N/A   Clear
9:15 PM 19.0 °F 11.1 °F 14.9 °F 84% 30.01 in 10.0 mi West 5.8 mph - N/A   Clear
9:35 PM 18.5 °F 11.7 °F 14.0 °F 83% 30.00 in 10.0 mi West 4.6 mph - N/A   Clear
9:55 PM 17.8 °F 10.9 °F 13.1 °F 82% 30.00 in 10.0 mi West 4.6 mph - N/A   Scattered Clouds
10:15 PM 18.0 °F 9.8 °F 12.0 °F 78% 30.01 in 10.0 mi West 5.8 mph - N/A   Scattered Clouds
10:35 PM 17.6 °F 10.7 °F 11.3 °F 76% 30.00 in 10.0 mi West 4.6 mph - N/A   Clear
10:55 PM 16.7 °F 11.2 °F 10.9 °F 78% 30.00 in 10.0 mi West 3.5 mph - N/A   Clear
11:15 PM 16.5 °F 11.0 °F 10.2 °F 76% 30.00 in 10.0 mi West 3.5 mph - N/A   Clear
11:35 PM 16.2 °F 9.0 °F 10.2 °F 77% 30.00 in 10.0 mi West 4.6 mph - N/A   Clear
11:55 PM 15.8 °F 8.6 °F 10.4 °F 79% 30.00 in 10.0 mi West 4.6 mph - N/A   Clear